KUIPER-00155 (65774 NORAD) Tracking and Keplerian Element Data

This shows tracking and keplerian element data for the satellite.

Feedback or suggestion? Click here.




ElementValue
Catalog65774
NameKUIPER-00155
Epoch Orbit1293
Epoch Day352.54924174
Epoch Year2025
RAAN36.6249
Inclination51.8662
Eccentricity0.0008662
Argument of Perigee42.3449
Mean Anonmoly317.8205
Mean Motion15.37645613
Decay Rate0.00030859
L11 65774U 25217N 25352.54924174 .00030859 00000+0 82832-3 0 9999
L22 65774 51.8662 36.6249 0008662 42.3449 317.8205 15.37645613 12939



Live tracking and technical data element details for KUIPER-00155 (NORAD 65774). KUIPER-00155 can be tracked NOW for your location showing map with azimuth and elevation plus other details from your city location.







IsCatalogInMostPopularTable: catalog: 65774, numindb: 3
Update: records affected: 1



GetName: 65774 KUIPER-00155

Hit Count: updated at: Wed, 15 Apr 2026 01:28:28 GMT